• In Netherlands
  • List of Countries
  • For 7 days
  • Water Temperature
  • Satellite Maps
  • Weather Map
  • Weather Widgets
  • user-avatar
    Login

    Hourly Weather Kalgoorlie

    Today, 17 August, Thursday

    Time Temperature Precipitation Wind Pressure Humidity
    00:00 +7°C° 0 mm 5 mps 731 mmHg 70%
    01:00 +7°C° 0 mm 4 mps 731 mmHg 73%
    02:00 +6°C° 0 mm 4 mps 731 mmHg 77%
    03:00 +6°C° 0 mm 4 mps 732 mmHg 78%
    04:00 +5°C° 0 mm 4 mps 732 mmHg 79%
    05:00 +4°C° 0 mm 3 mps 732 mmHg 81%
    06:00 +5°C° 0 mm 3 mps 732 mmHg 75%
    07:00 +7°C° 0 mm 3 mps 733 mmHg 70%
    08:00 +8°C° 0 mm 3 mps 733 mmHg 63%
    09:00 +9°C° 0 mm 3 mps 733 mmHg 54%
    10:00 +11°C° 0 mm 3 mps 733 mmHg 44%
    11:00 +13°C° 0 mm 2 mps 733 mmHg 34%
    12:00 +14°C° 0 mm 2 mps 733 mmHg 31%
    13:00 +15°C° 0 mm 2 mps 732 mmHg 28%
    14:00 +16°C° 0 mm 1 mps 732 mmHg 25%
    15:00 +16°C° 0 mm 1 mps 732 mmHg 25%
    16:00 +16°C° 0 mm 1 mps 732 mmHg 26%
    17:00 +16°C° 0 mm 1 mps 732 mmHg 26%
    18:00 +15°C° 0 mm 1 mps 732 mmHg 28%
    19:00 +14°C° 0 mm 2 mps 732 mmHg 30%
    20:00 +13°C° 0 mm 2 mps 733 mmHg 32%
    21:00 +12°C° 0 mm 2 mps 733 mmHg 33%
    22:00 +11°C° 0 mm 3 mps 733 mmHg 33%
    23:00 +11°C° 0 mm 3 mps 733 mmHg 34%

    Tomorrow, 18 August, Friday

    Time Temperature Precipitation Wind Pressure Humidity
    00:00 +10°C° 0 mm 3 mps 733 mmHg 35%
    01:00 +10°C° 0 mm 3 mps 733 mmHg 36%
    02:00 +10°C° 0 mm 3 mps 733 mmHg 36%
    03:00 +8°C° 0 mm 4 mps 732 mmHg 37%
    04:00 +8°C° 0 mm 4 mps 732 mmHg 39%
    05:00 +8°C° 0 mm 4 mps 732 mmHg 40%
    06:00 +9°C° 0 mm 5 mps 733 mmHg 38%
    07:00 +9°C° 0 mm 6 mps 733 mmHg 37%
    08:00 +10°C° 0 mm 7 mps 733 mmHg 35%
    09:00 +12°C° 0 mm 8 mps 733 mmHg 33%
    10:00 +16°C° 0 mm 8 mps 733 mmHg 30%
    11:00 +18°C° 0 mm 8 mps 732 mmHg 28%
    12:00 +20°C° 0 mm 8 mps 732 mmHg 27%
    13:00 +21°C° 0 mm 8 mps 731 mmHg 25%
    14:00 +22°C° 0 mm 7 mps 730 mmHg 24%
    15:00 +21°C° 0 mm 6 mps 730 mmHg 25%
    16:00 +21°C° 0 mm 5 mps 730 mmHg 26%
    17:00 +20°C° 0 mm 4 mps 730 mmHg 27%
    18:00 +20°C° 0 mm 5 mps 730 mmHg 27%
    19:00 +20°C° 0 mm 7 mps 730 mmHg 27%
    20:00 +18°C° 0 mm 8 mps 730 mmHg 26%
    21:00 +18°C° 0 mm 8 mps 730 mmHg 26%
    22:00 +18°C° 0 mm 9 mps 730 mmHg 25%
    23:00 +18°C° 0 mm 10 mps 729 mmHg 24%

    Day after tomorrow, 19 August, Saturday

    Time Temperature Precipitation Wind Pressure Humidity
    00:00 +18°C° 0 mm 9 mps 729 mmHg 24%
    01:00 +18°C° 0 mm 9 mps 728 mmHg 24%
    02:00 +17°C° 0 mm 9 mps 728 mmHg 24%
    03:00 +17°C° 0 mm 8 mps 727 mmHg 26%
    04:00 +17°C° 0 mm 7 mps 727 mmHg 29%
    05:00 +17°C° 0 mm 7 mps 727 mmHg 31%
    06:00 +17°C° 0 mm 7 mps 727 mmHg 32%
    07:00 +17°C° 0 mm 7 mps 727 mmHg 33%
    08:00 +17°C° 0 mm 7 mps 728 mmHg 34%
    09:00 +20°C° 0 mm 7 mps 728 mmHg 34%
    10:00 +21°C° 0 mm 7 mps 728 mmHg 33%
    11:00 +22°C° 0 mm 7 mps 728 mmHg 33%
    12:00 +21°C° 0 mm 7 mps 727 mmHg 37%
    13:00 +21°C° 0 mm 7 mps 726 mmHg 41%
    14:00 +20°C° 0 mm 7 mps 725 mmHg 46%
    15:00 +20°C° 0 mm 7 mps 726 mmHg 43%
    16:00 +20°C° 0 mm 7 mps 726 mmHg 41%
    17:00 +18°C° 0 mm 7 mps 726 mmHg 38%
    18:00 +17°C° 0 mm 7 mps 727 mmHg 41%
    19:00 +16°C° 0 mm 7 mps 727 mmHg 43%
    20:00 +13°C° 0 mm 8 mps 728 mmHg 45%
    21:00 +12°C° 0 mm 7 mps 728 mmHg 49%
    22:00 +12°C° 0 mm 7 mps 728 mmHg 53%
    23:00 +11°C° 0 mm 7 mps 728 mmHg 57%

    20 August, Sunday

    Time Temperature Precipitation Wind Pressure Humidity
    00:00 +10°C° 0 mm 7 mps 728 mmHg 61%
    01:00 +9°C° 0 mm 8 mps 728 mmHg 65%
    02:00 +9°C° 0 mm 8 mps 728 mmHg 70%
    03:00 +7°C° 0 mm 8 mps 729 mmHg 73%
    04:00 +7°C° 0 mm 9 mps 729 mmHg 76%
    05:00 +6°C° 0 mm 9 mps 729 mmHg 79%
    06:00 +7°C° 0 mm 9 mps 730 mmHg 76%
    07:00 +8°C° 0 mm 10 mps 731 mmHg 74%
    08:00 +9°C° 0 mm 10 mps 732 mmHg 71%
    09:00 +11°C° 0 mm 10 mps 732 mmHg 67%
    10:00 +12°C° 0 mm 10 mps 732 mmHg 64%
    11:00 +13°C° 0 mm 10 mps 733 mmHg 60%
    12:00 +13°C° 0 mm 10 mps 732 mmHg 59%
    13:00 +13°C° 0 mm 9 mps 732 mmHg 57%
    14:00 +13°C° 0 mm 9 mps 732 mmHg 56%
    15:00 +13°C° 0 mm 8 mps 732 mmHg 56%
    16:00 +14°C° 0 mm 7 mps 733 mmHg 56%
    17:00 +14°C° 0 mm 7 mps 733 mmHg 56%
    18:00 +13°C° 0 mm 6 mps 734 mmHg 61%
    19:00 +12°C° 0 mm 4 mps 734 mmHg 65%
    20:00 +11°C° 0 mm 3 mps 735 mmHg 69%
    21:00 +10°C° 0 mm 3 mps 735 mmHg 72%
    22:00 +10°C° 0 mm 3 mps 735 mmHg 76%
    23:00 +9°C° 0 mm 2 mps 735 mmHg 79%

    21 August, Monday

    Time Temperature Precipitation Wind Pressure Humidity
    00:00 +9°C° 0 mm 2 mps 735 mmHg 82%
    01:00 +8°C° 0 mm 2 mps 735 mmHg 85%
    02:00 +8°C° 0 mm 2 mps 735 mmHg 88%
    03:00 +7°C° 0 mm 2 mps 735 mmHg 90%
    04:00 +7°C° 0 mm 2 mps 735 mmHg 91%
    05:00 +8°C° 0 mm 1 mps 735 mmHg 92%
    06:00 +8°C° 0 mm 1 mps 735 mmHg 89%
    07:00 +9°C° 0 mm 1 mps 735 mmHg 85%
    08:00 +10°C° 0 mm 1 mps 736 mmHg 81%
    09:00 +12°C° 0 mm 1 mps 735 mmHg 71%
    10:00 +13°C° 0 mm 1 mps 735 mmHg 62%
    11:00 +15°C° 0 mm 1 mps 735 mmHg 53%
    12:00 +16°C° 0 mm 2 mps 734 mmHg 47%
    13:00 +17°C° 0 mm 2 mps 733 mmHg 41%
    14:00 +19°C° 0 mm 2 mps 732 mmHg 35%
    15:00 +19°C° 0 mm 2 mps 732 mmHg 35%
    16:00 +19°C° 0 mm 2 mps 732 mmHg 35%
    17:00 +19°C° 0 mm 2 mps 732 mmHg 34%
    18:00 +17°C° 0 mm 2 mps 733 mmHg 37%
    19:00 +16°C° 0 mm 2 mps 733 mmHg 40%
    20:00 +15°C° 0 mm 2 mps 734 mmHg 43%
    21:00 +14°C° 0 mm 2 mps 734 mmHg 46%
    22:00 +14°C° 0 mm 2 mps 734 mmHg 48%
    23:00 +12°C° 0 mm 3 mps 734 mmHg 51%

    22 August, Tuesday

    Time Temperature Precipitation Wind Pressure Humidity
    00:00 +11°C° 0 mm 3 mps 734 mmHg 58%
    01:00 +10°C° 0 mm 4 mps 733 mmHg 64%
    02:00 +8°C° 0 mm 4 mps 733 mmHg 71%
    03:00 +8°C° 0 mm 4 mps 734 mmHg 74%
    04:00 +8°C° 0 mm 4 mps 734 mmHg 77%
    05:00 +8°C° 0 mm 3 mps 734 mmHg 79%
    06:00 +9°C° 0 mm 3 mps 734 mmHg 75%
    07:00 +10°C° 0 mm 3 mps 735 mmHg 71%
    08:00 +11°C° 0 mm 3 mps 735 mmHg 67%
    09:00 +12°C° 0 mm 3 mps 735 mmHg 59%
    10:00 +14°C° 0 mm 3 mps 735 mmHg 52%
    11:00 +17°C° 0 mm 3 mps 735 mmHg 44%
    12:00 +18°C° 0 mm 2 mps 735 mmHg 41%
    13:00 +19°C° 0 mm 2 mps 734 mmHg 37%
    14:00 +21°C° 0 mm 1 mps 734 mmHg 34%
    15:00 +19°C° 0 mm 2 mps 734 mmHg 33%
    16:00 +19°C° 0 mm 2 mps 734 mmHg 33%
    17:00 +19°C° 0 mm 2 mps 734 mmHg 33%
    18:00 +18°C° 0 mm 2 mps 735 mmHg 36%
    19:00 +17°C° 0 mm 3 mps 736 mmHg 38%
    20:00 +16°C° 0 mm 3 mps 736 mmHg 41%
    21:00 +16°C° 0 mm 3 mps 736 mmHg 42%
    22:00 +14°C° 0 mm 4 mps 736 mmHg 44%
    23:00 +13°C° 0 mm 4 mps 736 mmHg 45%
    Show more